Find Okean-O

NORAD ID: 25860 Int'l Des: 1999-039 Owner: RGMS/YUZHUA Country: RU operational
LEOCIRCULARRETROGRADESSO

Live Position

Loading 3D Globe...

About Okean-O

Description loading...

Upcoming Passes

Passes for default location (London). Set your location on the main map for personalized predictions.

Altitude History

Loading altitude history...

Two-Line Element Set

1 25860U 99039A 26106.90902685 .00000347 00000-0 52331-4 0 9997
2 25860 97.9369 166.3970 0001267 115.5411 244.5933 14.80393543440044
Epoch: Apr 16, 2026 • Age: 9 hours

Current Status

Altitude 652.6 km
Velocity 7.53 km/s
Sub-Earth Point -61.31°S, 133.01°W
Launch Date Jul 17, 1999
Age 26.7 years
Type other

Technical Details

Classification Payload
Mass 6300.00 kg
Dry Mass 6000.00 kg
Total Mass 6300.00 kg
Length 10.60 m
Diameter 1.80 m
Span 10.60 m
Shape Cyl + 2 Pan
Manufacturer YUZHUA
Bus Type Okean-O
Phase Status Unknown Transfer Status
Owner/State RGMS/YUZHUA/RU

Most Searched